�N����,����,�g�[���i�䏊�j���x,�g�[�����x,��g�[���i���ցj���x,����
 2003/02/01, 0:00,18.5,46,7.2,7.3
 2003/02/01, 0:15,18.1,46,7.1,7.4
 2003/02/01, 0:30,17.8,46,7,7.4
 2003/02/01, 0:45,17.3,47,7,7.4
 2003/02/01, 1:00,17,47,7,7.4
 2003/02/01, 1:15,16.6,48,7,7.5
 2003/02/01, 1:30,16.5,47,6.9,7.5
 2003/02/01, 1:45,16.1,47,6.9,7.2
 2003/02/01, 2:00,15.9,47,6.8,7.2
 2003/02/01, 2:15,15.6,47,6.8,7.3
 2003/02/01, 2:30,15.4,47,6.8,7.3
 2003/02/01, 2:45,15.1,47,6.7,7.4
 2003/02/01, 3:00,15,47,6.7,7.4
 2003/02/01, 3:15,14.8,47,6.7,7.4
 2003/02/01, 3:30,14.6,47,6.6,7.4
 2003/02/01, 3:45,14.2,48,6.5,7.4
 2003/02/01, 4:00,14.1,48,6.5,7.4
 2003/02/01, 4:15,14,48,6.5,7.5
 2003/02/01, 4:30,13.8,48,6.4,7.5
 2003/02/01, 4:45,13.6,48,6.4,7.5
 2003/02/01, 5:00,13.6,48,6.3,7.5
 2003/02/01, 5:15,13.3,48,6.3,7.5
 2003/02/01, 5:30,13.2,48,6.3,7.5
 2003/02/01, 5:45,13,48,6.4,7.5
 2003/02/01, 6:00,12.9,48,6.4,7.5
 2003/02/01, 6:15,12.7,48,6.3,7.6
 2003/02/01, 6:30,12.6,48,6.3,7.6
 2003/02/01, 6:45,12.3,49,6.3,7.6
 2003/02/01, 7:00,14.8,50,6.5,7.2
 2003/02/01, 7:15,13.2,50,6.7,7.2
 2003/02/01, 7:30,13.8,60,6.6,8.1
 2003/02/01, 7:45,15,57,6.6,7.9
 2003/02/01, 8:00,17.7,54,6.5,7.9
 2003/02/01, 8:15,19.6,54,6.6,7.9
 2003/02/01, 8:30,20.6,53,6.7,7.9
 2003/02/01, 8:45,21.2,50,6.9,8.3
 2003/02/01, 9:00,21.5,49,7,8.3
 2003/02/01, 9:15,21.7,47,6.9,8.5
 2003/02/01, 9:30,21.7,48,7.2,8.1
 2003/02/01, 9:45,20,43,7.5,8.1
 2003/02/01,10:00,19.1,45,8,8.1
 2003/02/01,10:15,18.5,47,8.4,8.1
 2003/02/01,10:30,17.6,47,8.9,7.6
 2003/02/01,10:45,20.4,49,8.6,7.6
 2003/02/01,11:00,21.3,51,8.4,7.6
 2003/02/01,11:15,21.9,48,8.4,7.9
 2003/02/01,11:30,19.6,44,8.9,7.9
 2003/02/01,11:45,18.5,44,9,7.9
 2003/02/01,12:00,17.7,44,8.9,7.9
 2003/02/01,12:15,17.1,44,9,7.9
 2003/02/01,12:30,16.5,44,8.9,8
 2003/02/01,12:45,16.1,45,9,8
 2003/02/01,13:00,15.9,44,9,8
 2003/02/01,13:15,15.5,44,8.9,8
 2003/02/01,13:30,15.2,44,8.8,8
 2003/02/01,13:45,14.8,44,8.6,8
 2003/02/01,14:00,14.6,44,8.6,8
 2003/02/01,14:15,14.3,44,8.4,8
 2003/02/01,14:30,14.2,45,8.4,8.1
 2003/02/01,14:45,13.9,44,8.4,8.1
 2003/02/01,15:00,13.9,45,8.4,8.1
 2003/02/01,15:15,13.6,44,8.3,8.1
 2003/02/01,15:30,13.5,44,8.3,8.1
 2003/02/01,15:45,13.2,43,8.3,8.1
 2003/02/01,16:00,13,44,8.1,8.1
 2003/02/01,16:15,12.9,44,8,8.2
 2003/02/01,16:30,12.8,44,7.6,8.2
 2003/02/01,16:45,12.6,44,7.5,8.2
 2003/02/01,17:00,12.4,44,7.3,8.2
 2003/02/01,17:15,12.4,45,7.2,7.5
 2003/02/01,17:30,15.9,46,7.1,7.5
 2003/02/01,17:45,17.3,42,6.9,7.6
 2003/02/01,18:00,17.6,38,7.1,7.6
 2003/02/01,18:15,17.6,37,7.2,7.6
 2003/02/01,18:30,18.6,37,7.1,7.6
 2003/02/01,18:45,19.7,38,7.1,7.6
 2003/02/01,19:00,20.5,39,7.1,7.9
 2003/02/01,19:15,21.6,38,6.8,8
 2003/02/01,19:30,21.9,36,6.8,7.7
 2003/02/01,19:45,22.4,35,6.7,7.8
 2003/02/01,20:00,22.5,33,6.7,7.8
 2003/02/01,20:15,21.2,33,6.7,7.9
 2003/02/01,20:30,22.3,33,6.7,7.9
 2003/02/01,20:45,22.5,34,6.6,7.9
 2003/02/01,21:00,21.7,38,6.6,7.9
 2003/02/01,21:15,22.2,36,6.7,7.9
 2003/02/01,21:30,21.3,39,6.8,7.8
 2003/02/01,21:45,20.2,40,6.7,7.8
 2003/02/01,22:00,19.5,41,6.5,7.8
 2003/02/01,22:15,19,42,6.5,7.8
 2003/02/01,22:30,18.4,43,6.5,7.8
 2003/02/01,22:45,17.9,44,6.3,7.8
 2003/02/01,23:00,17.5,44,6.2,7.8
 2003/02/01,23:15,17.2,45,6.1,7.8
 2003/02/01,23:30,16.8,46,6.2,7.4
 2003/02/01,23:45,16.5,48,6,7.4
 2003/02/02, 0:00,16.1,49,5.9,7.4
 2003/02/02, 0:15,15.8,48,5.8,7.4
 2003/02/02, 0:30,15.6,47,5.8,7.4
 2003/02/02, 0:45,15.2,47,5.7,7.4
 2003/02/02, 1:00,14.9,47,5.7,7.4
 2003/02/02, 1:15,14.8,47,5.8,7.5
 2003/02/02, 1:30,14.7,47,5.8,7.5
 2003/02/02, 1:45,14.3,47,5.8,7.5
 2003/02/02, 2:00,14,48,5.7,7.5
 2003/02/02, 2:15,14,48,5.7,7.5
 2003/02/02, 2:30,13.9,47,5.7,7
 2003/02/02, 2:45,13.8,47,5.7,7.2
 2003/02/02, 3:00,13.5,48,5.7,7.2
 2003/02/02, 3:15,13.3,48,5.5,7.2
 2003/02/02, 3:30,13.1,48,5.5,7.2
 2003/02/02, 3:45,12.9,48,5.5,7.2
 2003/02/02, 4:00,12.8,48,5.4,7.2
 2003/02/02, 4:15,12.5,48,5.4,7.3
 2003/02/02, 4:30,12.5,48,5.4,7.3
 2003/02/02, 4:45,12.3,48,5.4,7.3
 2003/02/02, 5:00,12.2,48,5.4,7.3
 2003/02/02, 5:15,12,49,5.4,7.3
 2003/02/02, 5:30,11.9,49,5.3,7.3
 2003/02/02, 5:45,11.6,49,5.3,7.3
 2003/02/02, 6:00,11.5,49,5.3,7.3
 2003/02/02, 6:15,11.4,49,5.2,7.3
 2003/02/02, 6:30,14.5,52,5.3,7.1
 2003/02/02, 6:45,16.7,52,5.4,8.2
 2003/02/02, 7:00,18.3,54,5.5,8.2
 2003/02/02, 7:15,19.3,50,5.7,7.8
 2003/02/02, 7:30,18.3,52,5.6,7.8
 2003/02/02, 7:45,17,52,5.8,7.8
 2003/02/02, 8:00,19,53,5.8,7.8
 2003/02/02, 8:15,19.8,43,6,7.8
 2003/02/02, 8:30,21.2,42,6,7.8
 2003/02/02, 8:45,21,37,6.2,8.1
 2003/02/02, 9:00,21.3,37,6.5,8.1
 2003/02/02, 9:15,22.4,40,6.5,8.1
 2003/02/02, 9:30,22.7,40,6.8,8.1
 2003/02/02, 9:45,22.3,39,7.8,7.9
 2003/02/02,10:00,22.9,39,7.9,8.2
 2003/02/02,10:15,22.7,43,7.5,8.2
 2003/02/02,10:30,23.1,47,7.4,8.2
 2003/02/02,10:45,17.3,23,7.5,7.8
 2003/02/02,11:00,14.2,28,7.5,7.5
 2003/02/02,11:15,13.3,29,7.4,7.6
 2003/02/02,11:30,13.1,29,7.2,7.6
 2003/02/02,11:45,12.3,30,7.3,7.5
 2003/02/02,12:00,11.8,31,7.2,7.5
 2003/02/02,12:15,13.5,35,7.2,7.9
 2003/02/02,12:30,17.2,47,7.5,7.9
 2003/02/02,12:45,18.8,48,7.6,7.9
 2003/02/02,13:00,20.3,50,7.5,7.9
 2003/02/02,13:15,21.3,50,7.7,7.9
 2003/02/02,13:30,21.7,51,7.8,7.9
 2003/02/02,13:45,22.1,50,7.7,7.9
 2003/02/02,14:00,22.1,50,7.9,7.3
 2003/02/02,14:15,22.4,48,7.9,8.2
 2003/02/02,14:30,21.9,43,8.1,8.2
 2003/02/02,14:45,21.8,40,8.2,8.2
 2003/02/02,15:00,22,34,8.3,7.8
 2003/02/02,15:15,22.1,32,8.2,7.8
 2003/02/02,15:30,22.5,30,8.4,7.8
 2003/02/02,15:45,22.3,29,8.3,7.8
 2003/02/02,16:00,22.4,28,8.3,7.8
 2003/02/02,16:15,22.7,28,8.3,7.8
 2003/02/02,16:30,22.7,29,8.3,7.8
 2003/02/02,16:45,22.3,33,8.2,7.8
 2003/02/02,17:00,22.6,36,8.1,7.8
 2003/02/02,17:15,22.4,37,8.1,7.9
 2003/02/02,17:30,22.3,41,8,7.9
 2003/02/02,17:45,22.2,54,7.9,7.9
 2003/02/02,18:00,22,63,7.8,7.9
 2003/02/02,18:15,21.3,50,7.8,7.9
 2003/02/02,18:30,22,39,7.8,8.2
 2003/02/02,18:45,20.9,38,7.8,8.2
 2003/02/02,19:00,21,35,7.8,8.2
 2003/02/02,19:15,22.5,35,7.7,8.3
 2003/02/02,19:30,22.4,36,7.6,8.3
 2003/02/02,19:45,22.4,33,7.8,8.3
 2003/02/02,20:00,23,32,7.6,8.3
 2003/02/02,20:15,22.8,34,7.5,8.2
 2003/02/02,20:30,23.4,37,7.5,8.1
 2003/02/02,20:45,23.1,42,7.4,8.1
 2003/02/02,21:00,23.2,42,7.3,8.1
 2003/02/02,21:15,22.9,40,7.4,7.8
 2003/02/02,21:30,23.1,40,7.3,7.8
 2003/02/02,21:45,23.2,41,7.3,7.9
 2003/02/02,22:00,22.1,40,7.4,7.9
 2003/02/02,22:15,21.2,40,7.3,7.8
 2003/02/02,22:30,20.7,41,7.3,7.8
 2003/02/02,22:45,22.6,41,7.1,7.8
 2003/02/02,23:00,22.3,43,7.2,7.8
 2003/02/02,23:15,21,46,7.1,7.5
 2003/02/02,23:30,20.2,44,7.1,7.6
 2003/02/02,23:45,19.8,44,7.1,7.6
 2003/02/03, 0:00,19.5,44,7,7.7
 2003/02/03, 0:15,18.9,44,6.8,7.7
 2003/02/03, 0:30,18.6,44,6.8,7.7
 2003/02/03, 0:45,18,44,6.8,7.4
 2003/02/03, 1:00,17.8,44,6.8,7.4
 2003/02/03, 1:15,17.4,44,6.7,7.4
 2003/02/03, 1:30,17.2,44,6.7,7.5
 2003/02/03, 1:45,16.8,44,6.6,7.5
 2003/02/03, 2:00,16.5,44,6.5,7.5
 2003/02/03, 2:15,16.4,45,6.5,7.5
 2003/02/03, 2:30,16.2,44,6.6,7.3
 2003/02/03, 2:45,15.8,44,6.5,7.3
 2003/02/03, 3:00,15.6,44,6.5,7.3
 2003/02/03, 3:15,15.4,45,6.5,7.4
 2003/02/03, 3:30,15.2,45,6.5,7.4
 2003/02/03, 3:45,15,45,6.5,7.4
 2003/02/03, 4:00,14.8,45,6.3,7.4
 2003/02/03, 4:15,14.6,45,6.3,7.4
 2003/02/03, 4:30,14.3,46,6.2,7.5
 2003/02/03, 4:45,14.2,46,6.3,7.5
 2003/02/03, 5:00,13.9,46,6.2,7.5
 2003/02/03, 5:15,13.9,46,6.2,7.5
 2003/02/03, 5:30,13.8,46,6.1,7.5
 2003/02/03, 5:45,13.6,46,6,7.5
 2003/02/03, 6:00,16.1,49,6.1,8.1
 2003/02/03, 6:15,18.4,51,6,8.1
 2003/02/03, 6:30,20.1,51,6.1,8.1
 2003/02/03, 6:45,20.9,49,6.2,8.1
 2003/02/03, 7:00,21.5,48,6.2,8.3
 2003/02/03, 7:15,21.9,48,6.2,8
 2003/02/03, 7:30,22,47,6.4,8
 2003/02/03, 7:45,22,48,6.4,8
 2003/02/03, 8:00,21.2,49,6.5,8
 2003/02/03, 8:15,19.5,40,7.1,8
 2003/02/03, 8:30,18.4,40,7.3,8
 2003/02/03, 8:45,17.8,41,7.4,7.8
 2003/02/03, 9:00,17,48,7.4,7.8
 2003/02/03, 9:15,15.3,32,7.2,7.8
 2003/02/03, 9:30,13,30,7.8,7.8
 2003/02/03, 9:45,12.5,31,8.1,7.8
 2003/02/03,10:00,12.1,31,8.5,7.9
 2003/02/03,10:15,11.6,32,9,7.9
 2003/02/03,10:30,15.4,33,9.9,7.7
 2003/02/03,10:45,16.5,37,9.3,7.8
 2003/02/03,11:00,17.2,40,8.8,7.8
 2003/02/03,11:15,15.7,42,8.5,7.8
 2003/02/03,11:30,15.1,42,8.4,7.8
 2003/02/03,11:45,14.7,42,8.4,7.8
 2003/02/03,12:00,14.5,41,8.3,7.9
 2003/02/03,12:15,15,44,8.4,7.4
 2003/02/03,12:30,17.8,44,8.4,7.4
 2003/02/03,12:45,19,45,8.5,7.4
 2003/02/03,13:00,17.8,43,8.9,7.4
 2003/02/03,13:15,16.4,41,9,7.5
 2003/02/03,13:30,15.8,41,9.2,7.5
 2003/02/03,13:45,15.4,40,9.1,7.5
 2003/02/03,14:00,16.9,41,9,7.5
 2003/02/03,14:15,18.4,40,9,7.5
 2003/02/03,14:30,19.3,39,8.9,7.6
 2003/02/03,14:45,19.6,38,8.8,7.6
 2003/02/03,15:00,20,37,8.7,7.6
 2003/02/03,15:15,20.1,37,8.6,7.6
 2003/02/03,15:30,19.9,40,8.6,7.7
 2003/02/03,15:45,20.4,42,8.6,7.7
 2003/02/03,16:00,20.4,43,8.7,7.7
 2003/02/03,16:15,20.5,44,8.6,7.7
 2003/02/03,16:30,20.4,44,8.6,7.2
 2003/02/03,16:45,20.4,44,8.6,7.4
 2003/02/03,17:00,18.7,33,8.6,7.4
 2003/02/03,17:15,17.8,29,8.6,7.4
 2003/02/03,17:30,20.1,33,8.5,7.5
 2003/02/03,17:45,20.4,33,8.4,7.5
 2003/02/03,18:00,20.7,33,8.2,7.5
 2003/02/03,18:15,20.7,33,8.1,7.5
 2003/02/03,18:30,20.7,34,8.1,7.5
 2003/02/03,18:45,21.3,33,8,7.8
 2003/02/03,19:00,22,31,7.9,7.7
 2003/02/03,19:15,21.9,30,7.8,7.7
 2003/02/03,19:30,21.1,34,7.7,7.7
 2003/02/03,19:45,21,34,7.6,7.7
 2003/02/03,20:00,20.9,32,7.8,7.7
 2003/02/03,20:15,21.2,33,7.8,7.8
 2003/02/03,20:30,21,34,7.6,7.8
 2003/02/03,20:45,21.1,31,7.6,7.8
 2003/02/03,21:00,20.9,29,7.5,7.8
 2003/02/03,21:15,20.9,32,7.3,7.8
 2003/02/03,21:30,21.2,32,7.2,7.9
 2003/02/03,21:45,21.1,32,7.1,7.9
 2003/02/03,22:00,21,32,7,7.9
 2003/02/03,22:15,20.7,33,6.9,7.9
 2003/02/03,22:30,20.6,36,6.8,7.9
 2003/02/03,22:45,20.3,38,6.8,8
 2003/02/03,23:00,20.3,40,6.8,8
 2003/02/03,23:15,19.5,43,6.7,8
 2003/02/03,23:30,19.1,44,6.6,8
 2003/02/03,23:45,18.8,44,6.5,7.6
 2003/02/04, 0:00,18.4,44,6.4,7.7
 2003/02/04, 0:15,18,44,6.3,7.7
 2003/02/04, 0:30,17.4,42,6.2,7.5
 2003/02/04, 0:45,16.9,43,5.9,7.6
 2003/02/04, 1:00,16.7,43,5.8,7.6
 2003/02/04, 1:15,16.4,42,5.8,7.6
 2003/02/04, 1:30,15.9,43,5.7,7.6
 2003/02/04, 1:45,15.7,43,5.8,7.6
 2003/02/04, 2:00,15.7,43,5.7,7.6
 2003/02/04, 2:15,15.4,43,5.6,7.6
 2003/02/04, 2:30,15.1,43,5.5,7.7
 2003/02/04, 2:45,14.9,43,5.6,7.7
 2003/02/04, 3:00,14.5,43,5.4,7.7
 2003/02/04, 3:15,14.4,43,5.3,7.3
 2003/02/04, 3:30,14.1,43,5.2,7.3
 2003/02/04, 3:45,13.9,43,5.1,7.4
 2003/02/04, 4:00,13.6,43,5.1,7.4
 2003/02/04, 4:15,13.5,43,5,7.4
 2003/02/04, 4:30,13.1,44,4.9,7.4
 2003/02/04, 4:45,13,44,4.9,7.4
 2003/02/04, 5:00,12.8,44,4.8,7.4
 2003/02/04, 5:15,12.6,44,4.8,7.4
 2003/02/04, 5:30,12.4,44,4.7,7.4
 2003/02/04, 5:45,12.2,44,4.6,7.4
 2003/02/04, 6:00,12.2,45,4.4,7.1
 2003/02/04, 6:15,15.8,48,4.4,7.2
 2003/02/04, 6:30,16.5,43,4.4,8
 2003/02/04, 6:45,18,41,4.2,8
 2003/02/04, 7:00,18.6,37,4.4,8.3
 2003/02/04, 7:15,19.1,37,4.4,8.1
 2003/02/04, 7:30,20.1,35,4,8.1
 2003/02/04, 7:45,21.6,33,4.2,8.1
 2003/02/04, 8:00,18.5,30,4.6,8.3
 2003/02/04, 8:15,17.1,31,4.8,8.3
 2003/02/04, 8:30,16.1,41,5,8.2
 2003/02/04, 8:45,15.1,37,5.3,8.2
 2003/02/04, 9:00,14.7,36,5.7,8.2
 2003/02/04, 9:15,16,37,6,8
 2003/02/04, 9:30,14.9,39,6.5,8
 2003/02/04, 9:45,14.4,40,7,8
 2003/02/04,10:00,14.2,40,7.8,8
 2003/02/04,10:15,13.8,41,8.1,8
 2003/02/04,10:30,13.8,41,8.5,8
 2003/02/04,10:45,13.4,42,8.4,8
 2003/02/04,11:00,13.3,42,8.3,8
 2003/02/04,11:15,13.1,42,8.2,8
 2003/02/04,11:30,13.3,42,8.1,7.9
 2003/02/04,11:45,13.1,42,8.1,7.9
 2003/02/04,12:00,13,42,8.3,7.9
 2003/02/04,12:15,12.9,42,8.4,7.9
 2003/02/04,12:30,12.9,42,8.5,7.9
 2003/02/04,12:45,12.8,42,8.7,7.9
 2003/02/04,13:00,12.8,42,8.6,7.9
 2003/02/04,13:15,12.6,42,8.6,7.9
 2003/02/04,13:30,12.6,42,8.6,7.9
 2003/02/04,13:45,12.5,42,8.7,7.9
 2003/02/04,14:00,12.5,42,8.8,7.9
 2003/02/04,14:15,12.5,42,8.7,7.9
 2003/02/04,14:30,12.3,43,8.6,7.9
 2003/02/04,14:45,12.3,42,8.6,7.9
 2003/02/04,15:00,12.3,43,8.5,7.9
 2003/02/04,15:15,12.1,42,8.5,7.9
 2003/02/04,15:30,12.2,42,8.5,7.9
 2003/02/04,15:45,14.5,44,8.5,7.9
 2003/02/04,16:00,17.3,45,8.5,7.9
 2003/02/04,16:15,19,46,8.5,7.9
 2003/02/04,16:30,18.6,43,8.6,7.5
 2003/02/04,16:45,16.3,42,8.9,7.5
 2003/02/04,17:00,15.7,41,8.9,7.6
 2003/02/04,17:15,15.2,40,8.9,7.6
 2003/02/04,17:30,17.1,42,8.7,7.6
 2003/02/04,17:45,18.9,47,8.6,7.7
 2003/02/04,18:00,20.3,47,8.4,7.8
 2003/02/04,18:15,21.2,43,8.3,7.8
 2003/02/04,18:30,21.8,39,8.2,7.8
 2003/02/04,18:45,21.7,37,8,7.4
 2003/02/04,19:00,22.1,33,7.8,7.5
 2003/02/04,19:15,22.2,33,7.7,7.6
 2003/02/04,19:30,22.3,34,7.5,7.6
 2003/02/04,19:45,22.3,31,7.4,7.9
 2003/02/04,20:00,21.9,34,7.3,7.9
 2003/02/04,20:15,21.8,36,7.1,7.9
 2003/02/04,20:30,21.5,39,7.1,7.9
 2003/02/04,20:45,20.5,40,7,7.9
 2003/02/04,21:00,21.4,37,7.1,7.9
 2003/02/04,21:15,21.6,40,7,7.9
 2003/02/04,21:30,21.3,42,6.9,8
 2003/02/04,21:45,21.1,43,6.9,8
 2003/02/04,22:00,20.7,44,6.9,8
 2003/02/04,22:15,20.2,49,7,8
 2003/02/04,22:30,20.1,47,6.8,8
 2003/02/04,22:45,19.6,45,6.8,7.9
 2003/02/04,23:00,19.2,45,6.8,7.9
 2003/02/04,23:15,18.7,46,6.9,7.9
 2003/02/04,23:30,18.4,44,6.8,7.7
 2003/02/04,23:45,18,45,6.9,7.7
 2003/02/05, 0:00,17.7,45,7,7.7
 2003/02/05, 0:15,17.4,46,7.1,7.5
 2003/02/05, 0:30,17.1,46,7.2,7.5
 2003/02/05, 0:45,16.7,46,7.2,7.5
 2003/02/05, 1:00,16.5,45,7.3,7.5
 2003/02/05, 1:15,16.3,46,7.2,7.6
 2003/02/05, 1:30,16.2,46,7.1,7.6
 2003/02/05, 1:45,15.7,46,6.9,7.6
 2003/02/05, 2:00,15.6,46,6.8,7.6
 2003/02/05, 2:15,15.3,47,6.7,7.6
 2003/02/05, 2:30,15.1,47,6.6,7.7
 2003/02/05, 2:45,15,47,6.6,7.7
 2003/02/05, 3:00,14.8,47,6.6,7.7
 2003/02/05, 3:15,14.5,47,6.7,7.7
 2003/02/05, 3:30,14.5,47,6.8,7.7
 2003/02/05, 3:45,14.2,47,6.8,7.7
 2003/02/05, 4:00,14.2,47,6.8,7.7
 2003/02/05, 4:15,13.9,47,6.8,7.4
 2003/02/05, 4:30,13.9,47,6.8,7.4
 2003/02/05, 4:45,13.7,47,6.9,7.5
 2003/02/05, 5:00,13.5,47,6.8,7.5
 2003/02/05, 5:15,13.3,47,6.8,7.5
 2003/02/05, 5:30,13.3,47,6.8,7.5
 2003/02/05, 5:45,13.1,47,6.8,7.5
 2003/02/05, 6:00,13,47,6.6,7.5
 2003/02/05, 6:15,12.9,48,6.5,7.5
 2003/02/05, 6:30,13.8,50,6.5,7.6
 2003/02/05, 6:45,16.6,53,6.4,7.6
 2003/02/05, 7:00,17.7,49,6.4,8.4
 2003/02/05, 7:15,18.5,47,6.4,8.4
 2003/02/05, 7:30,19.2,43,6.5,8.4
 2003/02/05, 7:45,19.8,41,6.4,8.4
 2003/02/05, 8:00,18.4,43,6.5,8.4
 2003/02/05, 8:15,17.4,44,6.6,8.4
 2003/02/05, 8:30,16.9,45,6.8,8.4
 2003/02/05, 8:45,16.5,45,7.1,8.4
 2003/02/05, 9:00,16.3,46,7.1,8.4
 2003/02/05, 9:15,16,46,7.4,8
 2003/02/05, 9:30,15.7,46,7.7,8
 2003/02/05, 9:45,15.4,46,7.6,8
 2003/02/05,10:00,18.4,48,7.6,8
 2003/02/05,10:15,19.1,54,7.6,8
 2003/02/05,10:30,18.9,57,7.8,7.6
 2003/02/05,10:45,19.2,56,8,7.6
 2003/02/05,11:00,19.6,57,8.1,7.6
 2003/02/05,11:15,18.4,57,8.2,7.6
 2003/02/05,11:30,17.8,56,8.2,7.8
 2003/02/05,11:45,17.2,55,8.1,7.8
 2003/02/05,12:00,18.4,56,8.1,7.8
 2003/02/05,12:15,17.3,57,8.1,7.8
 2003/02/05,12:30,16.9,57,8.2,7.8
 2003/02/05,12:45,18.6,59,8.4,7.8
 2003/02/05,13:00,19.3,60,8,7.8
 2003/02/05,13:15,19.3,57,8,7.8
 2003/02/05,13:30,17.4,48,8.3,7.9
 2003/02/05,13:45,16.9,48,8.5,7.9
 2003/02/05,14:00,16.3,49,8.6,7.9
 2003/02/05,14:15,16,49,8.8,7.9
 2003/02/05,14:30,15.6,50,8.9,7.9
 2003/02/05,14:45,15.3,50,8.9,7.9
 2003/02/05,15:00,17,52,8.9,7.9
 2003/02/05,15:15,19.8,55,9,8
 2003/02/05,15:30,20.7,56,9.1,8
 2003/02/05,15:45,21.1,57,9.2,7.4
 2003/02/05,16:00,21.5,56,9.2,7.6
 2003/02/05,16:15,21.8,54,9.2,7.6
 2003/02/05,16:30,21.5,53,9.2,7.6
 2003/02/05,16:45,22,52,9.1,7.6
 2003/02/05,17:00,22.2,50,8.9,7.6
 2003/02/05,17:15,21.9,49,8.6,7.7
 2003/02/05,17:30,21.9,48,8.4,8.1
 2003/02/05,17:45,21.5,49,8.2,8.1
 2003/02/05,18:00,21.3,49,8.1,8.2
 2003/02/05,18:15,22.5,46,8,8.2
 2003/02/05,18:30,22.7,50,7.8,8.2
 2003/02/05,18:45,23,44,7.8,8.2
 2003/02/05,19:00,22.7,43,7.6,8.2
 2003/02/05,19:15,22.8,45,7.6,8.2
 2003/02/05,19:30,22.2,48,7.6,8.3
 2003/02/05,19:45,22.6,51,7.6,8
 2003/02/05,20:00,22.4,51,7.6,8.1
 2003/02/05,20:15,22.6,50,7.6,8
 2003/02/05,20:30,22.6,52,7.5,8
 2003/02/05,20:45,22.7,49,7.5,8
 2003/02/05,21:00,22.2,47,7.5,7.8
 2003/02/05,21:15,22.3,53,7.3,7.8
 2003/02/05,21:30,22.8,48,7.3,7.9
 2003/02/05,21:45,22.1,50,7.3,7.9
 2003/02/05,22:00,22.4,48,7.3,7.8
 2003/02/05,22:15,22,48,7.4,7.9
 2003/02/05,22:30,21.7,48,7.2,7.8
 2003/02/05,22:45,20.7,47,7.2,7.8
 2003/02/05,23:00,20.2,48,7.1,7.8
 2003/02/05,23:15,19.8,47,7.1,7.9
 2003/02/05,23:30,19.3,48,7,7.9
 2003/02/05,23:45,19.2,47,7,7.9
 2003/02/06, 0:00,18.6,47,6.8,7.9
 2003/02/06, 0:15,18.4,47,6.8,7.9
 2003/02/06, 0:30,17.9,47,6.7,7.6
 2003/02/06, 0:45,17.6,47,6.6,7.6
 2003/02/06, 1:00,17.2,47,6.6,7.7
 2003/02/06, 1:15,16.9,47,6.6,7.7
 2003/02/06, 1:30,16.5,48,6.5,7.7
 2003/02/06, 1:45,16.4,48,6.5,7.7
 2003/02/06, 2:00,16.2,48,6.5,7.7
 2003/02/06, 2:15,15.8,48,6.4,7.8
 2003/02/06, 2:30,15.7,48,6.3,7.8
 2003/02/06, 2:45,15.4,49,6.3,7.8
 2003/02/06, 3:00,15.2,48,6.1,7.8
 2003/02/06, 3:15,15,49,6.2,7.8
 2003/02/06, 3:30,14.8,49,6,7.8
 2003/02/06, 3:45,14.5,49,6,7.9
 2003/02/06, 4:00,14.4,49,5.9,7.9
 2003/02/06, 4:15,14.1,49,5.8,7.9
 2003/02/06, 4:30,13.9,49,5.8,7.9
 2003/02/06, 4:45,13.5,49,5.8,7.9
 2003/02/06, 5:00,13.5,49,5.6,7.9
 2003/02/06, 5:15,16.4,51,5.6,7.5
 2003/02/06, 5:30,18.6,54,5.5,7.5
 2003/02/06, 5:45,20,53,5.6,7.6
 2003/02/06, 6:00,20.5,53,5.6,7.6
 2003/02/06, 6:15,21.1,54,5.6,7.6
 2003/02/06, 6:30,21,52,5.8,7.6
 2003/02/06, 6:45,21.4,50,5.8,8
 2003/02/06, 7:00,21.7,49,5.7,8.1
 2003/02/06, 7:15,21.9,48,5.8,8.1
 2003/02/06, 7:30,22.2,45,5.7,8.1
 2003/02/06, 7:45,21.8,44,5.8,8.1
 2003/02/06, 8:00,20.5,47,6,7.8
 2003/02/06, 8:15,19.6,48,6.2,7.8
 2003/02/06, 8:30,19.1,49,6.4,7.8
 2003/02/06, 8:45,18.7,49,6.7,7.8
 2003/02/06, 9:00,17.2,31,6.9,7.8
 2003/02/06, 9:15,14.5,29,7.2,7.8
 2003/02/06, 9:30,12.9,30,7,7.9
 2003/02/06, 9:45,13,30,7.5,7.9
 2003/02/06,10:00,13.3,37,8.6,8.1
 2003/02/06,10:15,13.7,47,9.4,8.1
 2003/02/06,10:30,13.8,44,9.6,8.1
 2003/02/06,10:45,13.2,43,8.8,8.1
 2003/02/06,11:00,13.3,43,8.3,8.1
 2003/02/06,11:15,13.3,43,7.9,8.1
 2003/02/06,11:30,13.3,43,8,8.1
 2003/02/06,11:45,13.1,43,8,8.1
 2003/02/06,12:00,13,44,8.1,8.1
 2003/02/06,12:15,12.8,43,7.9,8.1
 2003/02/06,12:30,12.7,44,7.8,8.1
 2003/02/06,12:45,12.6,45,7.8,8.1
 2003/02/06,13:00,12.5,45,8,8.1
 2003/02/06,13:15,12.4,46,8,7.5
 2003/02/06,13:30,15.8,47,8.1,7.6
 2003/02/06,13:45,17.1,49,8.1,7.6
 2003/02/06,14:00,18.2,48,8.1,7.6
 2003/02/06,14:15,19.2,47,8.1,7.6
 2003/02/06,14:30,20,48,8.2,7.4
 2003/02/06,14:45,21,48,8.4,7.5
 2003/02/06,15:00,19.2,49,8.4,7.6
 2003/02/06,15:15,18.1,51,8.7,7.6
 2003/02/06,15:30,17.5,51,8.6,7.6
 2003/02/06,15:45,16.9,50,8.6,7.6
 2003/02/06,16:00,16.3,44,8.9,7.6
 2003/02/06,16:15,15.8,44,8.8,7.7
 2003/02/06,16:30,15.5,45,8.9,7.7
 2003/02/06,16:45,15.7,46,8.8,7.7
 2003/02/06,17:00,18.9,46,8.8,7.7
 2003/02/06,17:15,20.1,47,8.6,7.7
 2003/02/06,17:30,19.4,49,8.5,7.2
 2003/02/06,17:45,20.7,47,8.4,7.4
 2003/02/06,18:00,21.2,48,8.4,7.4
 2003/02/06,18:15,21.5,48,8.3,7.5
 2003/02/06,18:30,21.7,49,8.2,7.5
 2003/02/06,18:45,22.1,73,8.1,7.5
 2003/02/06,19:00,22.4,46,7.8,7.6
 2003/02/06,19:15,22.5,40,7.8,7.6
 2003/02/06,19:30,20.5,37,7.9,7.6
 2003/02/06,19:45,19.4,39,7.8,7.6
 2003/02/06,20:00,18.6,39,7.7,7.6
 2003/02/06,20:15,17.9,40,7.5,7.7
 2003/02/06,20:30,17.3,40,7.5,7.7
 2003/02/06,20:45,18.3,40,7.1,7.7
 2003/02/06,21:00,20.5,46,7.1,7.7
 2003/02/06,21:15,20.9,46,7,7.7
 2003/02/06,21:30,21.5,45,6.9,7.7
 2003/02/06,21:45,21.5,44,6.9,7.8
 2003/02/06,22:00,21.8,50,6.8,7.8
 2003/02/06,22:15,22,50,6.8,7.8
 2003/02/06,22:30,22.1,48,6.8,7.8
 2003/02/06,22:45,22.1,47,6.8,7.8
 2003/02/06,23:00,21.6,47,6.8,7.9
 2003/02/06,23:15,21.8,48,6.8,7.9
 2003/02/06,23:30,21.9,48,6.7,7.9
 2003/02/06,23:45,21.6,50,6.7,7.6
 2003/02/07, 0:00,20.4,49,6.6,7.8
 2003/02/07, 0:15,19.7,50,6.6,7.8
 2003/02/07, 0:30,19.2,49,6.5,7.8
 2003/02/07, 0:45,18.5,48,6.5,7.8
 2003/02/07, 1:00,18.1,48,6.5,7.6
 2003/02/07, 1:15,17.8,48,6.3,7.6
 2003/02/07, 1:30,17.5,48,6.2,7.6
 2003/02/07, 1:45,17.1,48,6.2,7.6
 2003/02/07, 2:00,16.7,48,6.2,7.6
 2003/02/07, 2:15,16.6,48,6,7.5
 2003/02/07, 2:30,16.1,48,6,7.5
 2003/02/07, 2:45,15.9,48,5.8,7.6
 2003/02/07, 3:00,15.5,48,5.8,7.6
 2003/02/07, 3:15,15.2,48,5.6,7.6
 2003/02/07, 3:30,15.1,48,5.6,7.6
 2003/02/07, 3:45,14.8,49,5.5,7.6
 2003/02/07, 4:00,14.7,48,5.3,7.6
 2003/02/07, 4:15,14.4,48,5.2,7.7
 2003/02/07, 4:30,14.2,48,5.2,7.7
 2003/02/07, 4:45,13.8,49,5.1,7.7
 2003/02/07, 5:00,13.7,49,5,7.7
 2003/02/07, 5:15,13.5,49,4.9,7.7
 2003/02/07, 5:30,13.5,49,4.9,7.7
 2003/02/07, 5:45,13.3,49,4.9,7.7
 2003/02/07, 6:00,13.3,49,4.8,7.7
 2003/02/07, 6:15,16.2,52,4.8,7.4
 2003/02/07, 6:30,18,48,4.7,7.4
 2003/02/07, 6:45,19.1,45,4.7,7.4
 2003/02/07, 7:00,19.8,42,4.7,8
 2003/02/07, 7:15,20.2,38,4.8,8.2
 2003/02/07, 7:30,19.8,35,4.9,8.2
 2003/02/07, 7:45,17.5,36,4.8,8.2
 2003/02/07, 8:00,16.9,38,5.2,8.1
 2003/02/07, 8:15,16.4,39,5.3,8.1
 2003/02/07, 8:30,16,40,5.7,7.8
 2003/02/07, 8:45,15.4,41,6.2,7.8
 2003/02/07, 9:00,15.1,41,6.5,7.8
 2003/02/07, 9:15,14.7,43,6.9,7.8
 2003/02/07, 9:30,14.5,43,7.8,7.8
 2003/02/07, 9:45,14.2,52,8.9,7.8
 2003/02/07,10:00,14.1,49,10,7.8
 2003/02/07,10:15,13.8,47,11.4,7.8
 2003/02/07,10:30,13.7,47,12,7.8
 2003/02/07,10:45,13.5,47,11.4,7.8
 2003/02/07,11:00,13.3,48,10.7,7.8
 2003/02/07,11:15,13.2,48,10.1,7.8
 2003/02/07,11:30,13.1,47,9.8,7.8
 2003/02/07,11:45,13.1,46,9.8,7.8
 2003/02/07,12:00,12.6,39,9.7,7.8
 2003/02/07,12:15,12.6,39,9.8,7.8
 2003/02/07,12:30,12.6,42,9.8,7.9
 2003/02/07,12:45,12.7,44,9.8,7.9
 2003/02/07,13:00,12.8,45,9.8,7.3
 2003/02/07,13:15,12.9,45,9.8,7.4
 2003/02/07,13:30,12.8,45,9.8,7.4
 2003/02/07,13:45,12.8,45,9.8,7.4
 2003/02/07,14:00,12.8,45,9.8,7.4
 2003/02/07,14:15,12.7,45,9.9,7.4
 2003/02/07,14:30,12.8,45,10,7.5
 2003/02/07,14:45,12.7,46,10,7.5
 2003/02/07,15:00,13.2,45,10.1,7.5
 2003/02/07,15:15,13.2,46,10.2,7.5
 2003/02/07,15:30,13.6,45,10.3,8.1
 2003/02/07,15:45,15.8,48,10.3,8.2
 2003/02/07,16:00,18.3,50,10.3,8.2
 2003/02/07,16:15,20,51,10.4,8
 2003/02/07,16:30,20.8,51,10.3,8
 2003/02/07,16:45,20.7,52,10.3,7.8
 2003/02/07,17:00,18.8,50,10.3,7.8
 2003/02/07,17:15,17.9,45,10.2,7.8
 2003/02/07,17:30,17.2,45,10.2,7.8
 2003/02/07,17:45,20.1,46,10,7.9
 2003/02/07,18:00,21.2,47,9.9,7.9
 2003/02/07,18:15,20.8,48,9.8,7.9
 2003/02/07,18:30,21.4,50,9.8,8
 2003/02/07,18:45,21.8,52,9.6,8
 2003/02/07,19:00,21.9,50,9.5,8
 2003/02/07,19:15,22.2,52,9.4,8.1
 2003/02/07,19:30,22.4,53,9.4,8.2
 2003/02/07,19:45,22.4,50,9.3,8.2
 2003/02/07,20:00,21.6,44,9.1,8.3
 2003/02/07,20:15,22.4,39,9,8.1
 2003/02/07,20:30,22.5,39,8.9,8.1
 2003/02/07,20:45,22.7,39,8.8,8
 2003/02/07,21:00,22.9,36,8.9,8
 2003/02/07,21:15,23.6,37,8.6,8.1
 2003/02/07,21:30,23.7,36,8.6,8.1
 2003/02/07,21:45,23,34,8.5,8.1
 2003/02/07,22:00,22.7,33,8.4,7.8
 2003/02/07,22:15,21.9,42,8.4,7.8
 2003/02/07,22:30,21.1,39,8.4,7.9
 2003/02/07,22:45,20.5,41,8.2,8.1
 2003/02/07,23:00,20.2,42,8.1,8
 2003/02/07,23:15,19.8,43,8.1,7.9
 2003/02/07,23:30,19.4,46,8.1,7.9
 2003/02/07,23:45,19.3,46,8,8
 2003/02/08, 0:00,18.9,44,7.9,7.8
 2003/02/08, 0:15,18.4,45,7.8,7.8
 2003/02/08, 0:30,17.9,47,7.7,7.9
 2003/02/08, 0:45,17.9,47,7.6,7.9
 2003/02/08, 1:00,17.7,47,7.5,8
 2003/02/08, 1:15,17.5,47,7.5,8
 2003/02/08, 1:30,17.2,47,7.3,8
 2003/02/08, 1:45,17.1,47,7.2,8
 2003/02/08, 2:00,16.8,47,7.2,8.1
 2003/02/08, 2:15,16.5,47,7,7.7
 2003/02/08, 2:30,16.2,47,6.9,7.7
 2003/02/08, 2:45,16,47,6.8,7.7
 2003/02/08, 3:00,15.7,47,6.7,7.8
 2003/02/08, 3:15,15.5,47,6.7,7.8
 2003/02/08, 3:30,15.3,47,6.5,7.8
 2003/02/08, 3:45,15.1,47,6.5,7.8
 2003/02/08, 4:00,14.8,48,6.5,7.9
 2003/02/08, 4:15,14.7,48,6.4,7.9
 2003/02/08, 4:30,14.4,48,6.3,7.9
 2003/02/08, 4:45,14.4,48,6.3,7.9
 2003/02/08, 5:00,14.2,48,6.2,8